When you browse on this site, cookies collect data to enhance your experience and personalize the content and advertising you see.
Visit our Privacy Policy to learn more. By continuing to use the site, you agree to this use of cookies and data.
  • In Austria
  • List of Countries
  • For 7 days
  • Water Temperature
  • Weather Map
  • News
  • Weather Widgets
  • user-avatar
    Login

    Hourly Weather Jaunde

    Today, 29 January, Wednesday

    Time Temperature Precipitation Wind Pressure Humidity
    00:00 +23°C° 0 mm 2 mps 697 mmHg 85%
    01:00 +22°C° 0 mm 1 mps 697 mmHg 94%
    02:00 +22°C° 0 mm 1 mps 697 mmHg 95%
    03:00 +21°C° 0 mm 1 mps 697 mmHg 97%
    04:00 +19°C° 0 mm 0 mps 697 mmHg 98%
    05:00 +20°C° 0 mm 0 mps 697 mmHg 96%
    06:00 +20°C° 0 mm 0 mps 698 mmHg 94%
    07:00 +21°C° 0 mm 0 mps 698 mmHg 91%
    08:00 +26°C° 0 mm 1 mps 699 mmHg 74%
    09:00 +29°C° 0 mm 1 mps 699 mmHg 57%
    10:00 +32°C° 0 mm 1 mps 700 mmHg 39%
    11:00 +33°C° 0 mm 1 mps 699 mmHg 32%
    12:00 +35°C° 0 mm 1 mps 698 mmHg 25%
    13:00 +38°C° 0 mm 2 mps 698 mmHg 18%
    14:00 +38°C° 0 mm 2 mps 697 mmHg 17%
    15:00 +38°C° 0 mm 2 mps 696 mmHg 15%
    16:00 +38°C° 0 mm 2 mps 696 mmHg 14%
    17:00 +34°C° 0 mm 1 mps 695 mmHg 17%
    18:00 +31°C° 0 mm 1 mps 695 mmHg 20%
    19:00 +28°C° 0 mm 1 mps 695 mmHg 23%
    20:00 +27°C° 0 mm 1 mps 696 mmHg 36%
    21:00 +26°C° 0 mm 1 mps 697 mmHg 50%
    22:00 +25°C° 0 mm 2 mps 697 mmHg 63%
    23:00 +24°C° 0 mm 1 mps 697 mmHg 74%

    Tomorrow, 30 January, Thursday

    Time Temperature Precipitation Wind Pressure Humidity
    00:00 +23°C° 0 mm 1 mps 697 mmHg 85%
    01:00 +22°C° 0 mm 1 mps 697 mmHg 96%
    02:00 +22°C° 0 mm 1 mps 697 mmHg 96%
    03:00 +20°C° 0 mm 0 mps 697 mmHg 97%
    04:00 +19°C° 0 mm 0 mps 697 mmHg 98%
    05:00 +19°C° 0 mm 0 mps 698 mmHg 97%
    06:00 +20°C° 0 mm 0 mps 698 mmHg 97%
    07:00 +20°C° 0 mm 0 mps 698 mmHg 96%
    08:00 +25°C° 0 mm 1 mps 699 mmHg 80%
    09:00 +28°C° 0 mm 1 mps 700 mmHg 63%
    10:00 +31°C° 0 mm 1 mps 701 mmHg 47%
    11:00 +33°C° 0 mm 1 mps 700 mmHg 38%
    12:00 +35°C° 0 mm 1 mps 700 mmHg 30%
    13:00 +37°C° 0 mm 1 mps 699 mmHg 21%
    14:00 +37°C° 0 mm 1 mps 698 mmHg 21%
    15:00 +36°C° 0 mm 1 mps 697 mmHg 21%
    16:00 +37°C° 0 mm 2 mps 696 mmHg 21%
    17:00 +33°C° 0 mm 1 mps 696 mmHg 27%
    18:00 +30°C° 0 mm 1 mps 696 mmHg 33%
    19:00 +28°C° 0 mm 1 mps 696 mmHg 39%
    20:00 +26°C° 0 mm 1 mps 697 mmHg 55%
    21:00 +25°C° 0 mm 1 mps 697 mmHg 71%
    22:00 +24°C° 0 mm 2 mps 698 mmHg 87%
    23:00 +23°C° 0 mm 2 mps 698 mmHg 90%

    Day after tomorrow, 31 January, Friday

    Time Temperature Precipitation Wind Pressure Humidity
    00:00 +23°C° 0 mm 2 mps 698 mmHg 92%
    01:00 +23°C° 0 mm 2 mps 698 mmHg 95%
    02:00 +23°C° 0 mm 1 mps 698 mmHg 93%
    03:00 +23°C° 0 mm 1 mps 698 mmHg 90%
    04:00 +22°C° 0 mm 0 mps 698 mmHg 88%
    05:00 +22°C° 0 mm 0 mps 698 mmHg 87%
    06:00 +22°C° 0 mm 0 mps 699 mmHg 86%
    07:00 +22°C° 0 mm 0 mps 699 mmHg 85%
    08:00 +26°C° 0 mm 1 mps 700 mmHg 72%
    09:00 +29°C° 0 mm 1 mps 700 mmHg 60%
    10:00 +31°C° 0 mm 1 mps 701 mmHg 47%
    11:00 +34°C° 0 mm 1 mps 700 mmHg 39%
    12:00 +36°C° 0 mm 1 mps 700 mmHg 30%
    13:00 +39°C° 0 mm 1 mps 699 mmHg 22%
    14:00 +39°C° 0 mm 1 mps 698 mmHg 22%
    15:00 +37°C° 0 mm 1 mps 697 mmHg 22%
    16:00 +37°C° 0 mm 1 mps 696 mmHg 23%
    17:00 +35°C° 0 mm 2 mps 696 mmHg 34%
    18:00 +31°C° 0 mm 2 mps 696 mmHg 44%
    19:00 +28°C° 0 mm 2 mps 696 mmHg 55%
    20:00 +27°C° 0 mm 2 mps 697 mmHg 65%
    21:00 +26°C° 0 mm 2 mps 697 mmHg 75%
    22:00 +24°C° 0 mm 2 mps 698 mmHg 85%
    23:00 +24°C° 0 mm 2 mps 698 mmHg 88%

    1 February, Saturday

    Time Temperature Precipitation Wind Pressure Humidity
    00:00 +23°C° 0 mm 2 mps 697 mmHg 90%
    01:00 +23°C° 0 mm 2 mps 697 mmHg 92%
    02:00 +23°C° 0 mm 1 mps 697 mmHg 91%
    03:00 +23°C° 0 mm 1 mps 697 mmHg 90%
    04:00 +23°C° 0 mm 1 mps 697 mmHg 88%
    05:00 +23°C° 0 mm 1 mps 697 mmHg 88%
    06:00 +21°C° 0 mm 0 mps 698 mmHg 89%
    07:00 +21°C° 0 mm 0 mps 698 mmHg 89%
    08:00 +24°C° 0 mm 0 mps 699 mmHg 74%
    09:00 +27°C° 0 mm 0 mps 700 mmHg 59%
    10:00 +32°C° 0 mm 1 mps 700 mmHg 44%
    11:00 +33°C° 0 mm 1 mps 700 mmHg 37%
    12:00 +35°C° 0 mm 1 mps 699 mmHg 31%
    13:00 +36°C° 0 mm 1 mps 698 mmHg 24%
    14:00 +36°C° 0 mm 1 mps 698 mmHg 24%
    15:00 +37°C° 0 mm 2 mps 697 mmHg 24%
    16:00 +37°C° 0 mm 2 mps 696 mmHg 24%
    17:00 +34°C° 0 mm 2 mps 696 mmHg 32%
    18:00 +30°C° 0 mm 2 mps 696 mmHg 39%
    19:00 +28°C° 0 mm 2 mps 696 mmHg 47%
    20:00 +26°C° 0 mm 2 mps 697 mmHg 59%
    21:00 +25°C° 0 mm 2 mps 697 mmHg 71%
    22:00 +24°C° 0 mm 2 mps 697 mmHg 82%
    23:00 +23°C° 0 mm 2 mps 697 mmHg 87%

    2 February, Sunday

    Time Temperature Precipitation Wind Pressure Humidity
    00:00 +22°C° 0 mm 1 mps 697 mmHg 92%
    01:00 +21°C° 0 mm 1 mps 697 mmHg 97%
    02:00 +21°C° 0 mm 1 mps 697 mmHg 97%
    03:00 +21°C° 0 mm 1 mps 696 mmHg 98%
    04:00 +21°C° 0 mm 1 mps 696 mmHg 98%
    05:00 +21°C° 0 mm 1 mps 697 mmHg 96%
    06:00 +19°C° 0 mm 0 mps 697 mmHg 94%
    07:00 +20°C° 0 mm 0 mps 698 mmHg 92%
    08:00 +25°C° 0 mm 1 mps 699 mmHg 75%
    09:00 +28°C° 0 mm 1 mps 699 mmHg 58%
    10:00 +32°C° 0 mm 1 mps 700 mmHg 41%
    11:00 +34°C° 0 mm 1 mps 699 mmHg 34%
    12:00 +36°C° 0 mm 1 mps 699 mmHg 28%
    13:00 +37°C° 0 mm 1 mps 698 mmHg 22%
    14:00 +37°C° 0 mm 1 mps 697 mmHg 24%
    15:00 +37°C° 0 mm 2 mps 697 mmHg 25%
    16:00 +36°C° 0 mm 2 mps 696 mmHg 27%
    17:00 +34°C° 0 mm 2 mps 696 mmHg 34%
    18:00 +31°C° 0 mm 2 mps 696 mmHg 42%
    19:00 +28°C° 0 mm 2 mps 696 mmHg 49%
    20:00 +27°C° 0 mm 2 mps 697 mmHg 60%
    21:00 +25°C° 0 mm 2 mps 697 mmHg 70%
    22:00 +24°C° 0 mm 2 mps 698 mmHg 81%
    23:00 +23°C° 0 mm 2 mps 698 mmHg 86%

    3 February, Monday

    Time Temperature Precipitation Wind Pressure Humidity
    00:00 +23°C° 0 mm 2 mps 697 mmHg 90%
    01:00 +21°C° 0 mm 2 mps 697 mmHg 94%
    02:00 +22°C° 0 mm 1 mps 697 mmHg 96%
    03:00 +21°C° 0 mm 1 mps 697 mmHg 97%
    04:00 +21°C° 0 mm 1 mps 697 mmHg 99%
    05:00 +21°C° 0 mm 1 mps 697 mmHg 96%
    06:00 +22°C° 0 mm 1 mps 698 mmHg 93%
    07:00 +22°C° 0 mm 1 mps 699 mmHg 91%
    08:00 +25°C° 0 mm 1 mps 699 mmHg 77%
    09:00 +28°C° 0 mm 1 mps 700 mmHg 63%
    10:00 +31°C° 0 mm 1 mps 700 mmHg 50%
    11:00 +32°C° 0 mm 1 mps 700 mmHg 44%
    12:00 +33°C° 0 mm 1 mps 699 mmHg 38%
    13:00 +34°C° 0 mm 1 mps 698 mmHg 32%
    14:00 +35°C° 0 mm 1 mps 697 mmHg 30%
    15:00 +35°C° 0 mm 1 mps 697 mmHg 29%
    16:00 +35°C° 0 mm 1 mps 696 mmHg 27%
    17:00 +33°C° 0 mm 1 mps 696 mmHg 34%
    18:00 +30°C° 0 mm 1 mps 696 mmHg 41%
    19:00 +28°C° 0 mm 1 mps 696 mmHg 48%
    20:00 +27°C° 0 mm 2 mps 696 mmHg 59%
    21:00 +25°C° 0 mm 2 mps 697 mmHg 70%
    22:00 +24°C° 0 mm 2 mps 697 mmHg 81%
    23:00 +23°C° 0 mm 2 mps 697 mmHg 85%
    Show more